FW7384 Weather Reports


Display with metric or nautical units.
time (UTC)temp
F
wind
direction
speed
MPH
gust
MPH
rain 1hr
in
rain 24hr
in
rain mn
in
humidity
%
barometer
mb
20260506105503 53 114 3.0 8.0 0.00 0.00 0.00 24 1011.7
20260506105003 54 99 3.0 8.0 0.00 0.00 0.00 24 1011.6
20260506104712 53 3 3.0 7.0 0.00 0.00 0.00 24 1011.8
20260506104004 53 25 3.0 7.0 0.00 0.00 0.00 25 1011.7
20260506103712 53 87 3.0 6.0 0.00 0.00 0.00 25 1011.8
20260506103003 53 180 4.0 9.0 0.00 0.00 0.00 24 1011.8
20260506102503 53 168 4.0 12.0 0.00 0.00 0.00 25 1012.0
20260506102003 53 153 4.0 12.0 0.00 0.00 0.00 26 1011.9
20260506101503 53 145 4.0 12.0 0.00 0.00 0.00 26 1012.1
20260506101213 53 137 3.0 9.0 0.00 0.00 0.00 24 1012.1
20260506100503 53 131 4.0 10.0 0.00 0.00 0.00 26 1012.2
20260506100213 53 137 4.0 10.0 0.00 0.00 0.00 26 1012.1
20260506095503 52 142 4.0 10.0 0.00 0.00 0.00 25 1012.3
20260506095003 52 184 3.0 10.0 0.00 0.00 0.00 24 1012.1
20260506094503 51 165 4.0 11.0 0.00 0.00 0.00 26 1012.1
20260506094003 51 153 6.0 12.0 0.00 0.00 0.00 26 1012.3
20260506093503 51 164 5.0 12.0 0.00 0.00 0.00 26 1012.4
20260506093003 51 191 3.0 7.0 0.00 0.00 0.00 26 1012.3
20260506092503 51 143 3.0 11.0 0.00 0.00 0.00 26 1012.5
20260506092213 51 119 4.0 11.0 0.00 0.00 0.00 25 1012.4
20260506091714 51 119 4.0 11.0 0.00 0.00 0.00 25 1012.5
20260506091003 51 103 3.0 11.0 0.00 0.00 0.00 25 1012.5
20260506090503 50 93 4.0 11.0 0.00 0.00 0.00 25 1012.4
20260506090003 50 90 4.0 8.0 0.00 0.00 0.00 25 1012.4
20260506085503 50 82 4.0 9.0 0.00 0.00 0.00 23 1012.3
20260506085003 50 99 4.0 10.0 0.00 0.00 0.00 24 1012.6
20260506084503 50 98 4.0 10.0 0.00 0.00 0.00 24 1012.6
20260506084004 51 95 4.0 9.0 0.00 0.00 0.00 25 1012.6
20260506083503 49 98 4.0 9.0 0.00 0.00 0.00 26 1012.5
20260506083003 49 111 6.0 11.0 0.00 0.00 0.00 25 1012.7
20260506082503 49 109 7.0 11.0 0.00 0.00 0.00 25 1012.7
20260506082003 49 108 5.0 10.0 0.00 0.00 0.00 26 1012.8
20260506081503 49 101 4.0 11.0 0.00 0.00 0.00 27 1012.8
20260506081003 49 67 4.0 11.0 0.00 0.00 0.00 27 1012.9
20260506080503 49 75 5.0 11.0 0.00 0.00 0.00 28 1012.7
20260506080212 48 96 5.0 10.0 0.00 0.00 0.00 29 1012.8
20260506073214 49 112 4.0 11.0 0.00 0.00 0.00 26 1013.0
20260506072503 48 96 5.0 11.0 0.00 0.00 0.00 26 1012.9
20260506072003 48 101 6.0 11.0 0.00 0.00 0.00 26 1012.9
20260506071713 48 83 5.0 11.0 0.00 0.00 0.00 26 1012.7
20260506071003 48 21 4.0 10.0 0.00 0.00 0.00 27 1012.7
20260506070503 48 46 4.0 9.0 0.00 0.00 0.00 29 1012.7
20260506062503 46 47 3.0 8.0 0.00 0.00 0.00 36 1012.7
20260506062003 46 31 3.0 9.0 0.00 0.00 0.00 37 1012.7
20260506061713 46 21 4.0 9.0 0.00 0.00 0.00 37 1012.8
20260506061003 45 35 3.0 9.0 0.00 0.00 0.00 38 1012.7
20260506060503 45 39 3.0 8.0 0.00 0.00 0.00 40 1012.8
20260506051003 34 49 0.0 2.0 0.00 0.00 0.00 74 1012.9
20260506050503 33 56 0.0 2.0 0.00 0.00 0.00 76 1012.9
20260506045003 32 60 0.0 2.0 0.00 0.00 0.00 75 1012.7
20260506044714 31 52 1.0 2.0 0.00 0.00 0.00 76 1012.9
20260506044003 31 35 1.0 3.0 0.00 0.00 0.00 76 1012.8
20260506043503 32 36 1.0 3.0 0.00 0.00 0.00 76 1012.9
20260506043003 32 41 1.0 2.0 0.00 0.00 0.00 74 1012.9
20260506042504 31 86 0.0 2.0 0.00 0.00 0.00 74 1013.0
20260506042003 31 152 0.0 2.0 0.00 0.00 0.00 72 1012.9
20260506041503 30 144 0.0 2.0 0.00 0.00 0.00 73 1013.0
20260506041004 31 117 0.0 1.0 0.00 0.00 0.00 72 1013.0
20260506040503 31 132 0.0 2.0 0.00 0.00 0.00 70 1012.9
20260506040003 31 175 0.0 2.0 0.00 0.00 0.00 73 1012.7
20260506035503 28 237 0.0 1.0 0.00 0.00 0.00 81 1012.8
20260506035003 28 223 0.0 1.0 0.00 0.00 0.00 82 1012.8
20260506034503 28 199 0.0 1.0 0.00 0.00 0.00 81 1012.7
20260506034003 28 40 0.0 2.0 0.00 0.00 0.00 83 1012.5
20260506033503 27 72 0.0 2.0 0.00 0.00 0.00 84 1012.5
20260506033004 26 53 0.0 2.0 0.00 0.00 0.00 86 1012.6
20260506032503 27 20 0.0 2.0 0.00 0.00 0.00 81 1012.8
20260506032003 28 21 0.0 2.0 0.00 0.00 0.00 80 1012.5
20260506031503 26 0 0.0 0.0 0.00 0.00 0.00 87 1012.5
20260506031215 26 93 0.0 1.0 0.00 0.00 0.00 87 1012.6
20260506030503 26 58 0.0 2.0 0.00 0.00 0.00 88 1012.4
20260506030003 26 46 0.0 2.0 0.00 0.00 0.00 86 1012.5
20260506025713 26 48 0.0 2.0 0.00 0.00 0.00 84 1012.5
20260506025212 25 40 0.0 2.0 0.00 0.00 0.00 86 1012.6
20260506024503 26 42 0.0 2.0 0.00 0.00 0.00 85 1012.7
20260506024003 26 41 0.0 1.0 0.00 0.00 0.00 88 1012.7
20260506023503 25 65 0.0 1.0 0.00 0.00 0.00 90 1012.6
20260506023003 25 50 1.0 2.0 0.00 0.00 0.00 90 1012.7
20260506022503 26 39 1.0 3.0 0.00 0.00 0.00 85 1012.8
20260506022003 25 43 1.0 3.0 0.00 0.00 0.00 83 1012.7
20260506021503 26 37 1.0 3.0 0.00 0.00 0.00 81 1012.8
20260506021214 26 29 1.0 3.0 0.00 0.00 0.00 82 1012.7
20260506020504 28 31 1.0 2.0 0.00 0.00 0.00 82 1012.6
20260506020003 28 49 0.0 2.0 0.00 0.00 0.00 83 1012.7
20260506015503 27 30 0.0 2.0 0.00 0.00 0.00 86 1012.7
20260506015003 27 28 1.0 2.0 0.00 0.00 0.00 83 1012.4
20260506014713 26 35 1.0 2.0 0.00 0.00 0.00 83 1012.6
20260506014003 27 42 1.0 2.0 0.00 0.00 0.00 82 1012.6
20260506013503 27 39 1.0 2.0 0.00 0.00 0.00 82 1012.4
20260506013003 28 36 1.0 2.0 0.00 0.00 0.00 80 1012.7
20260506012503 27 36 0.0 2.0 0.00 0.00 0.00 89 1012.7
20260506012003 28 35 1.0 2.0 0.00 0.00 0.00 86 1012.4
20260506011503 27 35 1.0 2.0 0.00 0.00 0.00 84 1012.5
20260506011003 27 29 1.0 2.0 0.00 0.00 0.00 82 1012.4
20260506010503 28 30 1.0 2.0 0.00 0.00 0.00 81 1012.4
20260506010214 28 32 1.0 2.0 0.00 0.00 0.00 80 1012.4
20260506005504 27 35 0.0 2.0 0.00 0.00 0.00 87 1012.2
20260506005003 26 35 1.0 3.0 0.00 0.00 0.00 89 1012.5
20260506004503 28 34 1.0 3.0 0.00 0.00 0.00 82 1012.4
20260506004003 28 41 2.0 3.0 0.00 0.00 0.00 81 1012.2
20260506003503 27 37 1.0 2.0 0.00 0.00 0.00 82 1012.3
20260506003003 28 30 1.0 3.0 0.00 0.00 0.00 80 1012.3
20260506002503 28 31 1.0 3.0 0.00 0.00 0.00 82 1012.4
20260506002003 29 29 1.0 3.0 0.00 0.00 0.00 80 1012.5
20260506001712 29 29 1.0 2.0 0.00 0.00 0.00 83 1012.4
20260506001003 29 31 1.0 2.0 0.00 0.00 0.00 82 1012.2
20260506000712 28 31 1.0 2.0 0.00 0.00 0.00 82 1012.2
20260506000003 28 30 1.0 2.0 0.00 0.00 0.00 83 1012.3
20260505235503 28 35 1.0 3.0 0.00 0.00 0.00 81 1012.3
20260505235003 29 35 2.0 3.0 0.00 0.00 0.00 79 1012.2
20260505234503 29 34 2.0 3.0 0.00 0.00 0.00 78 1012.3
20260505234213 29 30 2.0 3.0 0.00 0.00 0.00 79 1012.3
20260505233503 29 32 2.0 3.0 0.00 0.00 0.00 82 1012.3
20260505233003 29 33 1.0 3.0 0.00 0.00 0.00 80 1012.3
20260505232714 29 37 1.0 2.0 0.00 0.00 0.00 80 1012.4
20260505232003 28 32 1.0 3.0 0.00 0.00 0.00 81 1012.5
20260505231714 29 30 1.0 3.0 0.00 0.00 0.00 80 1012.3
20260505231003 30 28 2.0 3.0 0.00 0.00 0.00 77 1012.3
20260505230503 30 30 2.0 3.0 0.00 0.00 0.00 76 1012.4
20260505230003 30 31 1.0 3.0 0.00 0.00 0.00 78 1012.4
20260505225714 30 29 1.0 2.0 0.00 0.00 0.00 79 1012.4
20260505225003 29 25 1.0 2.0 0.00 0.00 0.00 82 1012.4
20260505224714 30 29 1.0 3.0 0.00 0.00 0.00 80 1012.4
20260505224003 31 38 1.0 3.0 0.00 0.00 0.00 78 1012.3
20260505223503 30 46 1.0 2.0 0.00 0.00 0.00 80 1012.4
20260505223003 31 39 1.0 2.0 0.00 0.00 0.00 80 1012.5
20260505222503 31 41 1.0 2.0 0.00 0.00 0.00 78 1012.5
20260505222003 30 52 1.0 2.0 0.00 0.00 0.00 80 1012.4
20260505221503 30 47 1.0 3.0 0.00 0.00 0.00 79 1012.4
20260505221003 30 44 2.0 3.0 0.00 0.00 0.00 77 1012.4
20260505220503 31 39 2.0 3.0 0.00 0.00 0.00 75 1012.3
20260505220004 31 32 1.0 3.0 0.00 0.00 0.00 74 1012.4
20260505215503 32 24 1.0 3.0 0.00 0.00 0.00 76 1012.3
20260505215212 32 19 1.0 3.0 0.00 0.00 0.00 75 1012.4
20260505214503 31 42 0.0 3.0 0.00 0.00 0.00 80 1012.4
20260505214003 31 43 1.0 3.0 0.00 0.00 0.00 77 1012.4
20260505213503 31 41 2.0 2.0 0.00 0.00 0.00 74 1012.2
20260505213212 32 47 1.0 2.0 0.00 0.00 0.00 73 1012.3
20260505212503 33 39 1.0 2.0 0.00 0.00 0.00 71 1012.3
20260505212003 33 32 1.0 2.0 0.00 0.00 0.00 73 1012.2
20260505211503 33 35 1.0 2.0 0.00 0.00 0.00 73 1012.2
20260505211212 33 41 1.0 2.0 0.00 0.00 0.00 72 1012.2
20260505210503 33 38 1.0 3.0 0.00 0.00 0.00 74 1012.1
20260505210003 33 34 2.0 3.0 0.00 0.00 0.00 74 1012.1
20260505205503 34 35 1.0 3.0 0.00 0.00 0.00 69 1012.1
20260505205214 34 35 1.0 3.0 0.00 0.00 0.00 67 1012.0
20260505204503 35 46 0.0 2.0 0.00 0.00 0.00 66 1012.1
20260505204003 35 29 0.0 2.0 0.00 0.00 0.00 65 1012.1
20260505203503 36 27 1.0 3.0 0.00 0.00 0.00 64 1012.1
20260505203003 36 29 0.0 3.0 0.00 0.00 0.00 64 1012.1
20260505202503 36 42 0.0 2.0 0.00 0.00 0.00 66 1011.9
20260505202003 36 60 1.0 2.0 0.00 0.00 0.00 63 1011.9
20260505201503 37 51 1.0 3.0 0.00 0.00 0.00 60 1011.9
20260505201214 37 41 1.0 3.0 0.00 0.00 0.00 60 1012.0
20260505200503 37 43 1.0 3.0 0.00 0.00 0.00 57 1011.9
20260505200003 38 40 1.0 2.0 0.00 0.00 0.00 55 1011.8
20260505195503 38 307 0.0 2.0 0.00 0.00 0.00 54 1011.8
20260505195214 39 232 0.0 2.0 0.00 0.00 0.00 52 1011.9
20260505194503 40 191 0.0 2.0 0.00 0.00 0.00 51 1011.7
20260505194003 40 208 0.0 1.0 0.00 0.00 0.00 50 1011.7
20260505193503 40 221 0.0 1.0 0.00 0.00 0.00 47 1011.8
20260505193214 41 226 0.0 1.0 0.00 0.00 0.00 49 1011.6
20260505192713 41 225 0.0 1.0 0.00 0.00 0.00 50 1011.4
20260505192003 43 197 0.0 2.0 0.00 0.00 0.00 45 1011.4
20260505191503 43 195 0.0 2.0 0.00 0.00 0.00 43 1011.2
20260505191003 44 177 0.0 1.0 0.00 0.00 0.00 39 1011.4
20260505190503 44 203 0.0 3.0 0.00 0.00 0.00 37 1011.3
20260505190214 45 221 1.0 3.0 0.00 0.00 0.00 37 1011.3
20260505185712 45 243 1.0 3.0 0.00 0.00 0.00 36 1011.2
20260505185003 45 253 1.0 3.0 0.00 0.00 0.00 34 1011.4
20260505184503 46 234 1.0 2.0 0.00 0.00 0.00 34 1011.2
20260505184003 46 235 1.0 4.0 0.00 0.00 0.00 34 1011.1
20260505183503 46 255 2.0 5.0 0.00 0.00 0.00 33 1011.0
20260505183003 47 265 3.0 6.0 0.00 0.00 0.00 32 1011.1
20260505182503 47 268 3.0 6.0 0.00 0.00 0.00 31 1011.0
20260505182213 47 259 2.0 6.0 0.00 0.00 0.00 31 1011.0
20260505181503 47 262 3.0 6.0 0.00 0.00 0.00 31 1010.9
20260505181003 48 265 3.0 6.0 0.00 0.00 0.00 31 1010.9
20260505180503 48 265 3.0 7.0 0.00 0.00 0.00 30 1010.8
20260505180003 48 266 4.0 7.0 0.00 0.00 0.00 30 1010.9
20260505175503 48 266 4.0 7.0 0.00 0.00 0.00 31 1010.8
20260505175213 49 263 4.0 7.0 0.00 0.00 0.00 30 1010.8
20260505174714 49 261 3.0 7.0 0.00 0.00 0.00 30 1010.7
20260505174003 49 268 3.0 9.0 0.00 0.00 0.00 31 1011.0
20260505173503 49 267 3.0 9.0 0.00 0.00 0.00 31 1010.8
20260505173003 49 257 3.0 7.0 0.00 0.00 0.00 30 1010.8
20260505172503 50 250 3.0 7.0 0.00 0.00 0.00 29 1010.7
20260505172003 50 262 3.0 8.0 0.00 0.00 0.00 30 1010.8
20260505171503 50 261 3.0 8.0 0.00 0.00 0.00 29 1010.6
20260505171213 50 256 3.0 8.0 0.00 0.00 0.00 28 1010.6
20260505170503 50 250 3.0 7.0 0.00 0.00 0.00 29 1010.7
20260505170003 51 223 3.0 7.0 0.00 0.00 0.00 28 1010.6
20260505165504 51 230 3.0 8.0 0.00 0.00 0.00 29 1010.6
20260505165003 51 237 3.0 8.0 0.00 0.00 0.00 28 1010.5
20260505164503 51 241 2.0 8.0 0.00 0.00 0.00 29 1010.7
20260505164003 51 222 3.0 6.0 0.00 0.00 0.00 28 1010.5
20260505163503 52 242 4.0 6.0 0.00 0.00 0.00 27 1010.5
20260505163003 51 265 4.0 9.0 0.00 0.00 0.00 28 1010.5
20260505162503 51 252 3.0 10.0 0.00 0.00 0.00 27 1010.3
20260505162003 51 268 5.0 13.0 0.00 0.00 0.00 27 1010.6
20260505161503 51 275 6.0 13.0 0.00 0.00 0.00 26 1010.5
20260505161003 52 256 4.0 12.0 0.00 0.00 0.00 26 1010.5
20260505160503 53 237 3.0 8.0 0.00 0.00 0.00 25 1010.5
20260505153003 53 247 3.0 9.0 0.00 0.00 0.00 27 1010.3
20260505152503 53 254 4.0 9.0 0.00 0.00 0.00 26 1010.3
20260505152003 53 242 4.0 11.0 0.00 0.00 0.00 27 1010.3
20260505151504 53 229 4.0 11.0 0.00 0.00 0.00 27 1010.2
20260505151003 53 238 4.0 13.0 0.00 0.00 0.00 26 1010.3
20260505150503 53 241 4.0 13.0 0.00 0.00 0.00 26 1010.3
20260505140503 54 251 5.0 11.0 0.00 0.00 0.00 24 1010.1
20260505125003 54 236 3.0 9.0 0.00 0.00 0.00 23 1009.9
20260505124503 54 227 3.0 12.0 0.00 0.00 0.00 25 1010.2
20260505124003 54 235 4.0 12.0 0.00 0.00 0.00 23 1010.1
20260505123503 54 250 4.0 11.0 0.00 0.00 0.00 23 1010.2
20260505123003 54 248 5.0 11.0 0.00 0.00 0.00 26 1010.1
20260505122503 54 229 5.0 11.0 0.00 0.00 0.00 24 1010.1
20260505122003 54 225 4.0 8.0 0.00 0.00 0.00 26 1010.0
20260505121503 54 232 3.0 15.0 0.00 0.00 0.00 25 1010.0
20260505121003 53 223 3.0 15.0 0.00 0.00 0.00 26 1010.3
20260505120503 54 211 3.0 10.0 0.00 0.00 0.00 26 1010.1
20260505120004 53 237 3.0 10.0 0.00 0.00 0.00 26 1010.2
20260505115503 53 252 4.0 8.0 0.00 0.00 0.00 25 1010.2
20260505115003 54 247 4.0 8.0 0.00 0.00 0.00 27 1010.2
20260505114503 54 253 4.0 9.0 0.00 0.00 0.00 26 1010.0
20260505114003 54 229 4.0 11.0 0.00 0.00 0.00 28 1010.0
20260505113503 54 214 4.0 11.0 0.00 0.00 0.00 26 1010.0
20260505113003 53 228 5.0 13.0 0.00 0.00 0.00 26 1010.2
20260505112503 52 233 5.0 13.0 0.00 0.00 0.00 27 1010.3
20260505112003 53 247 4.0 12.0 0.00 0.00 0.00 27 1010.3
20260505111503 52 244 3.0 12.0 0.00 0.00 0.00 28 1010.1
20260505111003 51 261 5.0 10.0 0.00 0.00 0.00 29 1010.3
20260505110503 51 281 6.0 16.0 0.00 0.00 0.00 27 1010.1